Theta_e
326 326 327 327 328 328 328 328 328 327 325 324 324 324 325 326 327 327 326 325 323 322 323 322 322 322 322 323 323 322 322 323 324 327 327 327 328 328 330 329 328 329 329 328 328 327 327
328 327 328 327 326 325 324 323 323 323 322 322 322 322 323 324 325 326 326 326 325 325 324 323 324 323 323 324 323 322 323 324 325 326 327 327 327 326 326 327 328 327 328 328 327 327 328
324 324 323 323 323 322 322 322 322 322 321 321 321 321 321 322 322 324 325 324 325 324 323 324 325 325 324 324 324 325 325 325 324 325 325 325 325 326 327 327 327 327 329 329 329 328 329
321 321 321 320 319 319 319 318 318 318 318 317 317 318 318 319 320 321 320 321 322 322 322 322 323 323 322 324 325 325 325 326 326 325 325 326 326 327 327 327 328 329 328 331 329 328 328
318 316 315 314 314 313 312 311 311 312 311 311 311 311 312 312 312 313 314 314 315 317 319 319 319 320 321 324 323 325 326 326 326 326 326 327 327 328 328 329 330 329 331 331 331 329 329
313 311 311 310 308 307 307 307 306 307 307 307 307 307 308 309 309 310 311 311 311 312 313 316 319 320 320 324 324 325 326 327 327 326 327 327 326 328 328 329 332 331 332 332 332 330 330
308 306 305 304 304 304 304 303 303 302 302 304 305 304 304 305 306 307 308 309 312 315 314 317 320 320 322 324 325 324 325 327 326 326 329 326 328 330 329 328 330 331 331 330 329 328 329
301 300 298 296 295 295 295 296 297 299 299 299 299 301 301 301 302 304 305 307 311 309 311 315 317 319 321 321 323 325 325 325 327 329 327 327 329 329 328 328 329 330 331 332 329 328 329
294 294 294 294 294 294 294 294 294 296 298 299 299 299 299 298 298 300 305 307 308 308 309 312 314 317 319 320 322 323 324 326 328 329 328 328 329 328 329 330 330 330 331 330 331 329 329
293 293 293 293 292 293 293 293 294 294 294 294 294 295 298 299 300 305 305 306 305 305 310 313 313 314 315 317 320 320 324 324 326 329 327 328 328 328 328 330 329 331 329 330 330 330 333
292 292 292 292 292 294 295 296 297 297 295 295 295 292 292 297 299 301 304 303 301 304 312 311 313 312 316 317 318 321 321 324 326 327 326 328 328 328 330 330 328 330 326 329 329 330 331
291 291 292 292 292 292 293 293 292 293 295 296 297 295 291 296 301 301 302 302 304 307 312 314 315 316 317 318 318 318 320 323 323 325 325 326 324 326 326 325 326 326 328 328 329 331 332
294 294 295 295 294 295 294 294 295 295 294 293 295 297 298 298 298 300 300 300 305 308 309 311 313 315 313 319 320 320 321 322 326 326 325 325 326 324 325 327 327 327 329 332 333 333 333
293 294 294 294 295 295 295 295 294 295 296 295 294 294 299 300 300 299 299 302 304 303 305 308 310 310 312 315 318 319 321 323 322 324 325 328 328 326 324 324 327 328 330 332 335 336 333
295 295 296 296 296 296 296 296 296 297 296 295 295 300 300 300 298 298 298 302 302 303 306 306 307 309 311 314 313 313 318 319 317 306 317 320 324 322 317 324 325 327 329 327 331 331 331
297 297 297 296 295 295 295 295 296 296 297 297 298 299 299 299 297 299 301 300 301 301 302 303 305 307 309 310 311 313 314 306 309 306 304 309 319 311 312 314 315 320 322 328 327 330 334
296 295 294 293 295 295 295 294 294 294 295 296 298 299 301 299 299 300 302 301 300 299 299 300 303 305 305 306 307 310 312 308 307 307 307 307 311 314 311 315 316 316 320 317 321 318 330
294 295 296 296 294 293 292 292 293 293 293 297 299 301 300 297 300 301 301 300 299 299 299 300 301 303 303 304 305 306 309 308 305 307 310 311 314 316 316 311 310 312 315 313 320 324 321
293 293 293 294 293 293 293 293 293 294 293 297 298 298 299 299 300 301 300 300 299 299 299 300 300 302 303 304 305 306 308 305 305 306 308 308 314 314 317 313 311 314 313 314 314 314 318
294 294 293 294 294 294 295 295 295 295 295 297 298 300 299 299 298 299 299 300 299 299 299 300 301 302 301 301 303 305 306 305 303 304 305 306 310 310 314 311 312 313 312 312 313 316 318
295 295 295 294 294 292 293 293 294 294 295 297 296 299 298 300 300 299 299 299 298 299 299 300 301 300 301 303 302 303 304 304 303 303 305 306 308 308 307 307 307 308 309 311 311 311 313
295 295 294 294 296 296 295 294 293 294 294 296 297 298 298 298 298 299 298 299 298 298 298 300 300 300 301 302 303 302 302 302 303 303 305 305 305 305 305 305 306 306 306 306 307 308 311
294 295 296 295 295 295 293 292 293 293 294 297 297 297 297 297 299 299 299 298 298 298 298 299 299 300 300 300 300 300 300 300 301 301 302 302 303 305 305 304 304 306 308 306 306 307 307
295 295 295 294 294 294 294 295 296 295 296 297 297 297 297 299 300 299 299 298 298 298 299 298 298 299 299 299 299 299 299 300 301 301 302 304 303 303 304 303 305 305 305 304 304 304 305
295 295 296 295 295 295 295 296 296 295 295 297 297 297 295 300 298 299 299 299 298 298 299 299 298 298 299 299 300 300 300 300 300 301 301 302 303 303 304 303 303 303 304 303 304 304 304
293 294 294 295 295 294 295 295 296 296 295 297 297 296 296 297 299 298 299 298 299 299 299 299 298 298 299 300 300 299 299 299 299 300 302 302 302 304 304 304 303 305 304 303 303 302 304
292 292 292 292 293 293 294 294 294 294 295 296 298 297 296 296 298 298 299 299 298 298 299 298 299 299 299 300 301 300 300 300 299 300 300 303 303 304 304 304 303 303 303 302 301 304 303
292 292 292 291 291 291 291 293 294 294 294 295 297 295 295 296 297 298 298 297 298 298 299 299 300 300 300 300 301 301 302 301 301 300 301 301 304 304 303 303 305 302 302 302 304 303 302
293 292 292 291 291 291 290 290 292 294 294 295 295 295 294 294 297 297 297 298 298 298 298 298 299 299 299 300 301 301 302 302 301 301 301 302 301 303 304 305 302 302 302 302 302 301 301
Wind_Speed
22 21 22 21 23 24 23 20 20 24 26 27 28 29 31 30 30 30 31 31 31 30 29 27 25 23 21 22 28 11 9 5 8 15 19 18 17 18 21 21 24 26 26 32 32 33 35
26 27 25 21 19 18 18 22 26 28 29 30 31 32 32 33 33 34 33 32 32 32 31 30 28 24 28 27 28 32 29 19 16 20 21 18 19 21 29 27 26 32 35 34 36 33 37
18 19 22 24 26 27 27 25 27 30 31 32 32 33 34 35 34 35 34 32 34 35 35 35 30 29 40 54 15 18 24 30 32 30 32 30 28 30 24 18 21 27 26 26 24 32 33
18 19 20 20 20 20 21 23 23 24 24 25 26 28 29 28 29 30 29 30 33 36 36 37 36 34 40 36 40 38 24 32 32 36 38 32 28 30 29 19 22 18 20 19 18 29 32
13 13 14 14 16 17 17 19 20 22 22 22 22 22 23 24 25 26 29 30 30 30 31 32 29 29 18 15 31 35 45 44 40 37 35 32 25 30 17 12 9 8 17 29 29 28 30
11 11 12 12 12 11 13 15 15 17 17 18 21 21 22 22 22 23 24 25 24 25 26 26 30 14 26 10 21 27 34 45 40 26 34 33 13 11 13 9 22 18 18 23 30 23 22
10 9 11 11 12 13 14 15 16 18 19 21 22 25 24 23 22 22 23 22 14 13 25 24 14 32 35 14 17 23 25 37 43 20 16 18 8 27 24 27 33 32 33 34 29 23 23
7 8 9 10 10 10 11 11 12 14 15 16 17 18 21 23 21 20 21 11 11 9 12 26 38 41 42 36 28 23 22 21 24 24 19 10 27 33 22 24 27 30 33 36 27 22 24
4 5 6 7 8 9 10 11 12 13 14 14 14 14 16 19 19 19 15 17 20 17 9 16 37 42 49 39 44 33 27 25 14 22 19 24 42 23 28 29 30 26 30 26 27 21 25
3 6 7 8 10 10 10 11 12 14 15 16 18 18 18 18 12 10 14 16 15 12 6 8 23 31 41 43 36 53 43 33 11 19 29 24 35 24 28 30 29 26 27 30 30 21 17
5 5 7 7 8 9 9 10 10 12 12 11 14 15 17 13 15 13 12 19 19 12 7 8 21 33 22 39 44 40 53 39 29 22 14 21 28 28 33 32 27 27 23 29 27 21 20
3 4 5 6 5 5 7 8 10 11 14 14 14 14 14 11 10 14 13 14 10 5 9 7 6 10 21 23 35 37 29 48 40 35 34 34 35 28 28 33 31 29 29 27 22 19 12
5 4 3 4 6 6 8 9 8 9 12 14 15 14 14 11 14 14 13 11 6 9 10 13 10 11 14 20 23 29 29 24 24 15 27 31 35 36 32 23 27 23 23 11 8 10 16
5 4 4 5 5 7 7 8 9 10 12 14 14 16 15 12 12 11 10 9 12 10 20 11 9 18 10 12 12 14 20 23 25 31 15 19 21 35 30 31 26 22 24 9 14 5 13
6 4 4 4 5 6 7 8 9 11 12 14 14 11 13 12 8 6 11 9 9 13 10 14 19 22 14 4 5 7 9 13 4 10 6 4 10 8 8 29 31 28 17 33 26 26 14
2 4 5 6 7 7 8 8 9 12 12 13 11 13 15 9 9 7 7 14 17 18 13 11 11 9 7 10 8 7 4 4 7 4 2 3 4 6 6 5 4 7 5 11 10 11 19
5 5 5 5 5 6 8 9 10 12 12 11 10 8 3 5 5 8 7 10 15 18 18 13 13 11 13 16 9 11 3 4 7 6 5 3 2 3 2 3 5 2 3 4 2 2 6
2 3 4 5 6 7 8 9 9 11 10 6 7 5 5 3 5 4 7 7 7 14 17 17 17 16 17 13 13 12 6 6 11 6 7 6 2 5 6 6 2 2 1 2 4 6 2
3 3 4 5 7 7 8 8 8 9 9 6 7 15 7 4 5 8 12 15 15 17 16 15 14 11 10 6 6 9 3 4 7 8 6 6 2 4 4 4 6 5 4 4 4 3 8
3 4 5 5 6 7 7 8 8 7 7 3 5 4 4 5 13 12 15 15 12 13 14 8 14 18 16 17 15 8 6 0 4 5 5 7 3 6 4 5 1 2 4 3 0 2 2
5 6 5 5 6 7 7 7 8 8 7 3 2 5 10 7 10 11 11 13 18 17 10 6 4 6 9 13 13 12 7 6 4 4 0 6 3 6 7 7 6 2 2 6 2 1 2
5 6 6 6 6 6 7 7 7 6 6 5 4 5 9 18 21 17 12 10 16 16 13 12 10 11 11 8 5 6 11 10 6 4 8 4 4 10 12 10 9 9 8 8 9 11 10
5 4 4 6 7 7 7 7 8 8 7 6 8 11 7 13 15 13 12 15 13 14 10 13 13 8 9 12 14 11 14 14 13 13 13 10 7 4 8 6 7 8 12 14 14 13 13
7 6 6 7 7 7 7 9 9 9 9 11 11 10 5 12 13 10 15 14 16 15 15 15 15 12 15 9 15 18 18 16 15 14 12 7 7 8 9 10 9 6 3 4 6 9 11
8 7 7 7 7 7 8 9 9 10 10 7 9 9 6 8 16 16 10 14 16 16 15 16 16 15 11 11 9 9 10 14 17 18 15 14 11 6 6 8 11 11 2 7 4 7 6
7 8 7 6 7 8 8 10 8 10 11 10 8 8 7 5 5 15 12 10 9 9 11 15 15 13 12 7 6 6 8 10 4 2 4 13 14 9 9 9 10 6 6 7 5 8 9
6 7 7 7 7 8 9 9 10 11 12 11 8 6 5 6 11 12 10 9 10 8 6 8 6 5 7 5 7 11 12 11 9 12 6 6 7 13 13 11 6 1 1 2 4 4 5
4 5 6 7 8 8 9 10 10 11 13 12 7 6 7 7 19 15 11 12 14 10 7 9 7 3 3 3 3 3 6 5 6 13 8 4 3 8 11 10 14 6 2 3 4 3 4
4 5 7 8 10 10 10 10 10 10 11 12 6 9 11 11 13 18 18 16 15 15 14 8 9 7 1 3 3 4 6 3 8 8 3 5 6 2 3 2 4 4 5 3 3 5 8
Wind_Direction
251 250 251 254 256 253 255 262 264 271 279 277 277 278 277 275 275 275 273 270 269 268 266 265 265 266 267 241 235 246 273 316 192 190 210 219 230 244 254 261 263 260 260 264 271 273 273
240 241 246 250 243 250 261 263 269 271 273 274 273 273 274 272 270 270 271 268 268 269 267 263 259 259 248 245 252 257 245 248 220 214 218 225 248 262 273 276 274 279 281 277 276 277 277
249 256 261 262 268 275 278 272 269 271 274 277 277 279 279 275 268 267 265 265 265 268 270 267 259 249 252 242 249 251 240 233 234 228 238 249 259 261 263 268 268 269 273 270 266 269 271
256 264 265 268 269 271 272 273 271 273 275 276 275 275 274 273 271 269 271 267 265 267 269 267 260 254 256 261 254 239 235 245 238 236 243 248 250 258 258 270 285 266 266 274 254 255 258
260 271 278 283 286 287 288 289 287 287 285 283 287 284 281 282 283 280 279 280 278 273 268 266 263 248 256 260 229 246 235 239 239 240 242 245 252 250 249 214 243 193 257 256 266 257 263
271 267 275 282 282 283 287 289 294 299 302 299 292 290 291 288 287 286 282 282 283 283 272 263 249 244 240 229 231 232 234 232 231 229 241 226 211 218 214 196 233 242 245 246 256 255 254
267 281 288 287 287 289 289 294 296 297 293 291 294 298 299 295 293 289 291 295 282 270 231 218 217 218 253 243 236 233 231 228 229 214 204 178 202 220 209 210 233 242 251 263 271 280 282
284 288 294 302 305 304 300 300 306 307 302 298 297 302 303 306 301 289 280 266 278 282 285 244 246 250 250 254 265 231 220 207 220 212 192 186 217 218 212 218 232 242 257 263 275 287 277
303 303 307 313 317 315 309 304 298 297 302 307 312 313 318 314 304 306 272 255 275 301 256 248 246 247 247 240 244 236 212 214 211 211 207 208 229 210 223 221 224 227 239 254 260 264 260
316 308 307 311 311 312 314 310 307 306 307 305 302 297 304 318 317 307 295 261 303 310 257 248 245 246 243 237 243 235 226 213 232 227 204 224 238 226 220 230 235 244 229 237 247 257 256
333 321 322 326 321 316 316 321 324 330 328 327 323 317 301 306 299 299 311 313 319 313 256 214 245 230 225 208 227 225 226 211 229 219 211 217 234 221 241 240 225 245 250 255 252 253 258
49 22 11 13 7 355 340 331 315 313 308 315 321 331 325 311 284 292 293 303 288 246 248 238 230 214 227 223 220 235 219 213 225 231 232 236 226 227 223 246 241 242 248 258 260 260 250
74 59 12 351 354 342 345 337 335 330 318 313 306 318 314 297 279 294 302 293 254 241 305 277 302 343 332 263 232 225 232 223 219 217 231 236 241 242 241 222 239 238 253 236 230 229 236
72 37 16 12 355 349 338 331 327 320 310 311 315 304 297 284 281 275 276 268 248 269 245 309 306 300 309 3 278 267 243 237 227 232 254 234 234 222 229 236 232 219 232 235 238 215 248
53 15 340 341 321 318 324 318 316 317 318 322 329 326 295 287 298 267 239 241 251 264 336 335 311 289 246 254 329 343 322 290 308 34 265 306 237 201 11 232 229 232 227 228 245 260 274
322 286 291 298 312 315 312 314 317 322 320 323 323 302 292 251 286 240 225 250 282 288 300 304 307 317 312 340 319 5 325 7 337 20 283 352 316 4 347 283 68 241 326 226 207 238 239
283 292 313 327 330 332 331 334 327 317 320 321 308 292 287 290 266 242 245 266 278 295 304 298 282 275 288 302 300 323 275 56 27 345 296 310 32 39 333 351 16 314 196 249 130 93 257
320 354 342 334 339 346 353 349 341 329 328 337 295 285 291 301 272 249 263 261 264 286 293 285 264 272 277 299 292 284 292 23 341 330 337 325 346 258 279 147 131 309 313 59 334 119 132
22 13 3 2 7 5 1 355 346 344 350 320 290 290 277 260 271 281 281 285 289 282 272 280 273 252 276 275 285 291 18 49 359 2 7 336 276 267 172 159 179 225 199 119 104 116 249
37 18 12 29 22 5 353 355 350 332 332 325 302 300 284 237 275 282 297 299 298 306 291 323 299 288 268 278 268 264 274 139 285 340 354 305 306 360 0 22 303 136 85 94 89 198 101
38 25 23 23 13 9 353 342 336 327 327 292 257 264 304 292 286 283 284 287 294 295 301 236 273 301 325 279 266 264 290 324 297 137 155 331 301 332 330 313 286 279 138 156 143 341 279
38 34 38 37 23 9 1 358 350 337 340 254 267 283 312 293 290 291 284 270 280 289 305 295 293 355 359 319 322 317 328 336 318 329 345 350 315 325 304 296 311 316 285 256 229 225 222
29 31 31 26 20 21 16 4 340 325 308 280 283 283 274 291 292 293 284 288 291 301 289 287 286 293 297 305 312 326 320 305 289 294 301 312 298 302 296 294 323 297 254 251 262 251 242
51 56 55 49 56 52 31 22 20 1 300 269 277 286 263 289 300 290 284 304 288 283 295 280 279 281 296 294 288 286 275 262 257 260 258 220 281 293 281 302 259 254 65 342 303 295 292
60 63 59 60 48 36 15 7 7 360 356 308 280 272 263 287 307 306 309 322 304 282 285 275 275 289 287 287 286 279 259 247 246 238 240 236 228 262 258 259 267 256 259 191 233 278 297
66 59 52 39 22 15 7 4 358 0 358 347 306 281 278 296 318 317 313 301 303 298 282 261 267 269 267 276 280 267 275 290 282 210 245 224 226 218 259 267 270 97 89 53 3 258 37
61 49 38 27 18 8 358 349 346 347 349 352 301 289 274 271 287 331 319 323 316 314 303 298 309 290 244 259 259 259 268 273 261 259 233 208 224 228 230 248 263 259 337 22 241 64 33
37 21 14 8 3 356 350 347 341 332 339 359 305 312 281 268 289 299 310 312 320 302 291 337 308 30 294 264 284 288 271 269 263 259 265 278 263 224 228 241 240 347 103 322 46 359 357
329 336 340 341 344 344 340 339 337 337 331 342 334 308 312 257 264 290 284 285 286 284 301 310 309 311 195 291 276 301 276 267 251 261 217 235 214 281 314 31 214 101 84 95 10 337 326